Weather History for Buffalo, MN

Change the Weather History Date:

Wednesday, April 23, 2014

  Actual Average (KSTC) Record (KSTC)
Temperature  
Mean Temperature 42 °F 48 °F  
Max Temperature 46 °F 61 °F 88 °F (1913)
Min Temperature 39 °F 36 °F 17 °F (1909)
Degree Days  
Heating Degree Days 22 17  
Month to date heating degree days 512  
Since 1 July heating degree days 8062  
Cooling Degree Days 0 0  
Month to date cooling degree days 0  
Year to date cooling degree days 0  
Moisture  
Dew Point 31 °F    
Average Humidity 67    
Maximum Humidity 89    
Minimum Humidity 47    
Precipitation  
Precipitation 0.26 in 0.09 in 1.19 in (1915)
Month to date precipitation 1.85  
Year to date precipitation 4.64  
Snow  
Snow 0.00 in 0.10 in 2.80 in (1936)
Month to date snowfall 2.7  
Since 1 July snowfall 45.4  
Snow Depth -    
Sea Level Pressure  
Sea Level Pressure 30.02 in    
Wind  
Wind Speed 9 mph (ESE)    
Max Wind Speed 16 mph    
Max Gust Speed 25 mph    
Visibility 10 miles    
Events Rain    
T = Trace of Precipitation, MM = Missing Value Source: NWS Daily Summary

Daily Weather History Graph

Daily Weather History Graph

Search for Another Location

Airport:

Trip Planner

Search our weather history database for the weather conditions in past years. The results will help you decide how hot, cold, wet, or windy it might be!

Date:

Astronomy

Apr. 23, 2014 Rise Set
Actual Time 6:16 AM CDT 8:11 PM CDT
Civil Twilight 5:45 AM CDT 8:43 PM CDT
Nautical Twilight 5:06 AM CDT 9:21 PM CDT
Astronomical Twilight 4:24 AM CDT 10:04 PM CDT
Moon 3:05 AM CDT (4/23) 2:04 PM CDT (4/23)
Length of Visible Light 14h 57m
Length of Day
13h 54m
Waning Crescent, 34% of the Moon is Illuminated
Apr 23
Waning Crescent
Apr 29
New
May 6
First Quarter
May 14
Full
May 21
Last Quarter

Hourly Weather History & Observations

Time (CDT) Temp. Windchill Dew Point Humidity Pressure Visibility Wind Dir Wind Speed Gust Speed Precip Events Conditions
12:16 AM 43.3 °F 39.9 °F 27.1 °F 53% 30.07 in 10.0 mi East 5.8 mph - N/A   Clear
12:35 AM 43.2 °F 39.0 °F 26.6 °F 52% 30.07 in 10.0 mi East 6.9 mph - N/A   Clear
12:55 AM 42.4 °F 38.1 °F 26.2 °F 53% 30.07 in 10.0 mi East 6.9 mph - N/A   Clear
1:15 AM 43.0 °F 40.3 °F 25.0 °F 49% 30.07 in 10.0 mi East 4.6 mph - N/A   Clear
1:35 AM 41.2 °F 37.3 °F 25.9 °F 55% 30.07 in 10.0 mi East 5.8 mph - N/A   Clear
1:56 AM 40.3 °F 36.3 °F 26.1 °F 57% 30.08 in 10.0 mi East 5.8 mph - N/A   Clear
2:15 AM 40.3 °F 36.3 °F 26.4 °F 58% 30.07 in 10.0 mi East 5.8 mph - N/A   Clear
2:35 AM 41.2 °F 36.6 °F 26.1 °F 55% 30.07 in 10.0 mi East 6.9 mph - N/A   Clear
2:56 AM 42.3 °F 37.9 °F 26.4 °F 54% 30.07 in 10.0 mi East 6.9 mph - N/A   Clear
3:15 AM 42.8 °F 38.6 °F 26.2 °F 52% 30.07 in 10.0 mi East 6.9 mph - N/A   Clear
3:35 AM 43.3 °F 39.2 °F 25.7 °F 50% 30.07 in 10.0 mi East 6.9 mph - N/A   Clear
3:56 AM 43.5 °F 39.4 °F 25.7 °F 50% 30.07 in 10.0 mi East 6.9 mph - N/A   Clear
4:15 AM 43.0 °F 38.8 °F 26.6 °F 52% 30.07 in 10.0 mi East 6.9 mph - N/A   Clear
4:35 AM 43.5 °F 38.9 °F 26.1 °F 50% 30.07 in 10.0 mi ESE 8.1 mph - N/A   Clear
4:56 AM 44.6 °F 41.4 °F 25.5 °F 47% 30.08 in 10.0 mi ESE 5.8 mph - N/A   Clear
5:15 AM 44.6 °F 39.7 °F 25.7 °F 48% 30.07 in 10.0 mi ESE 9.2 mph - N/A   Clear
5:35 AM 44.6 °F 40.2 °F 25.9 °F 48% 30.08 in 10.0 mi ESE 8.1 mph - N/A   Clear
5:56 AM 43.9 °F 39.3 °F 25.9 °F 49% 30.09 in 10.0 mi ESE 8.1 mph - N/A   Clear
6:15 AM 43.7 °F 38.6 °F 25.7 °F 49% 30.08 in 10.0 mi ESE 9.2 mph - N/A   Clear
6:35 AM 43.7 °F 38.6 °F 25.7 °F 49% 30.08 in 10.0 mi ESE 9.2 mph - N/A   Clear
6:56 AM 43.9 °F 37.9 °F 25.5 °F 48% 30.08 in 10.0 mi ESE 11.5 mph 16.1 mph N/A   Clear
7:15 AM 43.7 °F 38.6 °F 25.9 °F 50% 30.08 in 10.0 mi ESE 9.2 mph - N/A   Clear
7:35 AM 43.9 °F 38.8 °F 26.4 °F 50% 30.08 in 10.0 mi SE 9.2 mph 17.3 mph N/A   Clear
7:56 AM 43.7 °F 37.3 °F 26.6 °F 51% 30.08 in 10.0 mi ESE 12.7 mph 18.4 mph N/A   Mostly Cloudy
8:15 AM 43.9 °F 38.8 °F 27.3 °F 52% 30.08 in 10.0 mi SE 9.2 mph - N/A   Overcast
8:35 AM 44.6 °F 39.7 °F 26.8 °F 50% 30.07 in 10.0 mi SE 9.2 mph - N/A   Overcast
8:56 AM 44.8 °F 38.7 °F 26.4 °F 49% 30.06 in 10.0 mi ESE 12.7 mph 16.1 mph N/A   Overcast
9:15 AM 44.6 °F 38.8 °F 27.0 °F 50% 30.06 in 10.0 mi ESE 11.5 mph 17.3 mph N/A Rain Light Rain
9:35 AM 44.1 °F 38.6 °F 27.9 °F 53% 30.07 in 10.0 mi ESE 10.4 mph 17.3 mph N/A Rain Light Rain
9:56 AM 44.6 °F 40.7 °F 27.9 °F 52% 30.09 in 10.0 mi SE 6.9 mph - N/A   Overcast
10:16 AM 45.3 °F 41.1 °F 27.5 °F 50% 30.10 in 10.0 mi SSE 8.1 mph - N/A   Overcast
10:35 AM 45.5 °F 41.8 °F 27.5 °F 49% 30.09 in 10.0 mi SE 6.9 mph - N/A   Overcast
10:56 AM 46.4 °F 42.4 °F 28.2 °F 49% 30.07 in 10.0 mi SE 8.1 mph - N/A   Overcast
11:16 AM 46.4 °F 40.4 °F 28.6 °F 50% 30.06 in 10.0 mi ESE 13.8 mph - N/A Rain Light Rain
11:35 AM 45.7 °F 41.0 °F 30.4 °F 55% 30.06 in 10.0 mi SE 9.2 mph 19.6 mph N/A Rain Light Rain
12:16 PM 43.5 °F 38.3 °F 31.6 °F 63% 30.05 in 10.0 mi SE 9.2 mph 19.6 mph N/A Rain Light Rain
12:35 PM 42.8 °F 36.2 °F 32.9 °F 68% 30.04 in 7.0 mi ESE 12.7 mph 17.3 mph 0.03 in Rain Rain
12:56 PM 41.9 °F 35.4 °F 34.2 °F 74% 30.04 in 5.0 mi ESE 11.5 mph - 0.07 in Rain Rain
1:15 PM 41.7 °F 35.6 °F 34.7 °F 76% 30.04 in 10.0 mi ESE 10.4 mph - 0.01 in Rain Light Rain
1:35 PM 41.2 °F 34.5 °F 34.7 °F 78% 30.04 in 10.0 mi SE 11.5 mph 17.3 mph 0.02 in Rain Light Rain
1:55 PM 40.5 °F 33.6 °F 35.1 °F 81% 30.05 in 5.0 mi SE 11.5 mph 20.7 mph 0.06 in Rain Rain
2:15 PM 39.6 °F 32.5 °F 35.6 °F 86% 30.04 in 4.0 mi East 11.5 mph 20.7 mph 0.04 in Rain Rain
2:35 PM 39.6 °F 31.0 °F 35.6 °F 86% 30.02 in 7.0 mi East 16.1 mph 24.2 mph 0.06 in Rain Light Rain
3:16 PM 40.1 °F 33.6 °F 36.5 °F 87% 30.01 in 10.0 mi East 10.4 mph - N/A Rain Light Rain
3:35 PM 41.0 °F 34.3 °F 37.4 °F 87% 30.01 in 5.0 mi East 11.5 mph 17.3 mph 0.01 in Rain Rain
3:55 PM 40.3 °F 31.9 °F 37.2 °F 89% 29.98 in 7.0 mi East 16.1 mph 21.9 mph 0.03 in Rain Rain
4:16 PM 40.1 °F 32.4 °F 36.9 °F 88% 29.96 in 5.0 mi East 13.8 mph 21.9 mph 0.02 in Rain Light Rain
4:35 PM 40.1 °F 32.0 °F 36.5 °F 87% 29.95 in 10.0 mi East 15.0 mph 25.3 mph 0.02 in   Light Drizzle
4:55 PM 40.1 °F 33.2 °F 36.0 °F 85% 29.96 in 10.0 mi East 11.5 mph 20.7 mph 0.02 in   Overcast
5:16 PM 40.3 °F 32.6 °F 36.0 °F 85% 29.95 in 10.0 mi East 13.8 mph 19.6 mph N/A Rain Light Rain
5:35 PM 40.3 °F 33.0 °F 35.6 °F 83% 29.95 in 10.0 mi East 12.7 mph 19.6 mph N/A Rain Light Rain
5:55 PM 40.6 °F 33.4 °F 35.8 °F 83% 29.94 in 10.0 mi East 12.7 mph - N/A   Overcast
6:16 PM 40.6 °F 34.8 °F 36.0 °F 83% 29.94 in 10.0 mi East 9.2 mph - N/A Rain Light Rain
6:35 PM 41.0 °F 33.9 °F 36.5 °F 84% 29.94 in 10.0 mi East 12.7 mph - N/A   Overcast
6:55 PM 41.0 °F 34.7 °F 36.0 °F 82% 29.93 in 10.0 mi East 10.4 mph - N/A   Overcast
7:15 PM 41.0 °F 34.7 °F 36.0 °F 82% 29.93 in 10.0 mi East 10.4 mph - N/A Rain Light Rain
7:35 PM 41.0 °F 33.9 °F 36.5 °F 84% 29.92 in 7.0 mi East 12.7 mph - 0.01 in Rain Light Rain
7:56 PM 41.0 °F 33.5 °F 36.5 °F 84% 29.91 in 10.0 mi East 13.8 mph 20.7 mph 0.02 in Rain Rain
8:15 PM 41.0 °F 33.1 °F 36.5 °F 84% 29.91 in 10.0 mi East 15.0 mph 19.6 mph N/A   Light Drizzle
8:35 PM 41.2 °F 34.1 °F 36.7 °F 84% 29.92 in 10.0 mi East 12.7 mph - N/A   Drizzle
8:56 PM 41.4 °F 34.3 °F 36.7 °F 83% 29.92 in 10.0 mi East 12.7 mph 18.4 mph N/A   Overcast
9:15 PM 41.5 °F 36.4 °F 36.7 °F 83% 29.94 in 10.0 mi East 8.1 mph - N/A   Overcast
9:35 PM 41.5 °F 34.6 °F 36.7 °F 83% 29.93 in 10.0 mi East 12.7 mph - N/A   Overcast
9:56 PM 41.9 °F 35.0 °F 36.7 °F 82% 29.91 in 10.0 mi East 12.7 mph 20.7 mph N/A   Overcast
10:15 PM 41.9 °F 36.9 °F 36.5 °F 81% 29.92 in 10.0 mi East 8.1 mph - N/A   Overcast
10:35 PM 41.9 °F 36.9 °F 36.9 °F 82% 29.93 in 10.0 mi East 8.1 mph - N/A   Overcast
10:55 PM 41.9 °F 37.5 °F 37.0 °F 83% 29.94 in 10.0 mi East 6.9 mph - N/A   Overcast
11:15 PM 41.7 °F 36.7 °F 37.2 °F 84% 29.94 in 10.0 mi East 8.1 mph - N/A   Overcast
11:36 PM 41.9 °F 36.3 °F 37.0 °F 83% 29.92 in 10.0 mi East 9.2 mph - N/A   Overcast
11:55 PM 41.7 °F 35.2 °F 37.2 °F 84% 29.89 in 10.0 mi ESE 11.5 mph - N/A   Overcast